TimeCDT,TemperatureF,Dew PointF,Humidity,Sea Level PressureIn,VisibilityMPH,Wind Direction,Wind SpeedMPH,Gust SpeedMPH,PrecipitationIn,Events,Conditions,WindDirDegrees,DateUTC
12:16 AM,19.4,8.6,63,29.96,10.0,SSE,5.8,-,N/A,,Clear,160,2014-03-13 05:16:00
12:35 AM,17.6,6.8,63,29.97,10.0,SSE,3.5,-,N/A,,Clear,160,2014-03-13 05:35:00
12:55 AM,19.4,8.6,63,29.96,10.0,SE,3.5,-,N/A,,Clear,140,2014-03-13 05:55:00
1:16 AM,19.4,8.6,63,29.96,10.0,Calm,Calm,-,N/A,,Clear,0,2014-03-13 06:16:00
1:35 AM,19.4,8.6,63,29.95,10.0,SSE,4.6,-,N/A,,Scattered Clouds,150,2014-03-13 06:35:00
1:55 AM,19.4,8.6,63,29.94,10.0,SSE,5.8,-,N/A,,Overcast,150,2014-03-13 06:55:00
2:16 AM,19.4,10.4,68,29.94,10.0,SSE,5.8,-,N/A,,Overcast,160,2014-03-13 07:16:00
2:35 AM,21.2,10.4,63,29.94,10.0,SSE,5.8,-,N/A,,Overcast,150,2014-03-13 07:35:00
2:55 AM,21.2,12.2,68,29.93,10.0,SSE,6.9,-,N/A,,Overcast,160,2014-03-13 07:55:00
3:15 AM,21.2,12.2,68,29.91,10.0,SSE,6.9,-,N/A,,Overcast,150,2014-03-13 08:15:00
3:35 AM,21.2,12.2,68,29.90,10.0,SSE,5.8,-,N/A,,Overcast,150,2014-03-13 08:35:00
3:56 AM,23.0,12.2,63,29.89,10.0,SSE,4.6,-,N/A,,Overcast,150,2014-03-13 08:56:00
4:15 AM,23.0,12.2,63,29.88,10.0,SE,5.8,-,N/A,,Overcast,140,2014-03-13 09:15:00
4:35 AM,23.0,12.2,63,29.87,10.0,SSE,8.1,-,N/A,,Overcast,150,2014-03-13 09:35:00
4:56 AM,23.0,14.0,68,29.85,10.0,SE,5.8,-,N/A,,Overcast,140,2014-03-13 09:56:00
5:15 AM,23.0,14.0,68,29.84,10.0,SSE,6.9,-,N/A,,Scattered Clouds,160,2014-03-13 10:15:00
5:35 AM,23.0,14.0,68,29.84,10.0,SSE,6.9,-,N/A,,Scattered Clouds,160,2014-03-13 10:35:00
5:56 AM,23.0,15.8,74,29.83,10.0,SSE,5.8,-,N/A,,Scattered Clouds,160,2014-03-13 10:56:00
6:15 AM,23.0,14.0,68,29.83,10.0,SSE,5.8,-,N/A,,Clear,160,2014-03-13 11:15:00
6:35 AM,23.0,14.0,68,29.82,10.0,SSE,5.8,-,N/A,,Clear,160,2014-03-13 11:35:00
6:55 AM,23.0,15.8,74,29.81,10.0,SSE,5.8,-,N/A,,Clear,160,2014-03-13 11:55:00
7:15 AM,23.0,15.8,74,29.81,10.0,SSE,5.8,-,N/A,,Clear,160,2014-03-13 12:15:00
7:35 AM,23.0,15.8,74,29.80,10.0,SSE,6.9,-,N/A,,Clear,160,2014-03-13 12:35:00
7:55 AM,23.0,15.8,74,29.80,10.0,SSE,5.8,-,N/A,,Clear,160,2014-03-13 12:55:00
8:15 AM,23.0,15.8,74,29.79,10.0,SSE,6.9,-,N/A,,Clear,160,2014-03-13 13:15:00
8:36 AM,24.8,15.8,69,29.78,10.0,South,6.9,-,N/A,,Clear,170,2014-03-13 13:36:00
8:55 AM,26.6,17.6,69,29.78,10.0,South,9.2,-,N/A,,Clear,170,2014-03-13 13:55:00
9:15 AM,26.6,19.4,74,29.78,10.0,South,8.1,-,N/A,,Clear,170,2014-03-13 14:15:00
9:36 AM,28.4,19.4,69,29.77,10.0,South,8.1,-,N/A,,Clear,190,2014-03-13 14:36:00
9:55 AM,30.2,21.2,69,29.76,10.0,South,4.6,-,N/A,,Clear,190,2014-03-13 14:55:00
10:15 AM,32.0,23.0,69,29.75,10.0,South,6.9,-,N/A,,Clear,190,2014-03-13 15:15:00
10:36 AM,33.8,24.8,70,29.75,10.0,SSW,6.9,-,N/A,,Clear,200,2014-03-13 15:36:00
10:55 AM,35.6,24.8,65,29.74,10.0,SSW,5.8,-,N/A,,Clear,200,2014-03-13 15:55:00
11:15 AM,35.6,26.6,70,29.74,10.0,SSW,3.5,-,N/A,,Clear,210,2014-03-13 16:15:00
11:35 AM,37.4,26.6,65,29.73,10.0,SSW,4.6,-,N/A,,Clear,210,2014-03-13 16:35:00
11:55 AM,37.4,26.6,65,29.73,10.0,South,5.8,-,N/A,,Clear,170,2014-03-13 16:55:00
12:16 PM,39.2,28.4,65,29.71,10.0,SSE,6.9,-,N/A,,Clear,150,2014-03-13 17:16:00
12:35 PM,41.0,28.4,61,29.71,10.0,South,5.8,-,N/A,,Clear,190,2014-03-13 17:35:00
12:55 PM,42.8,30.2,61,29.70,10.0,South,6.9,-,N/A,,Clear,180,2014-03-13 17:55:00
1:15 PM,42.8,30.2,61,29.69,10.0,South,8.1,-,N/A,,Clear,180,2014-03-13 18:15:00
1:35 PM,44.6,30.2,57,29.69,10.0,SSW,8.1,-,N/A,,Clear,200,2014-03-13 18:35:00
1:56 PM,44.6,30.2,57,29.68,10.0,South,8.1,-,N/A,,Clear,170,2014-03-13 18:56:00
2:15 PM,44.6,30.2,57,29.67,10.0,South,9.2,-,N/A,,Clear,190,2014-03-13 19:15:00
2:35 PM,44.6,32.0,61,29.66,10.0,South,10.4,-,N/A,,Clear,180,2014-03-13 19:35:00
2:56 PM,46.4,32.0,57,29.65,10.0,South,8.1,-,N/A,,Clear,180,2014-03-13 19:56:00
3:15 PM,46.4,32.0,57,29.64,10.0,South,9.2,-,N/A,,Clear,180,2014-03-13 20:15:00
3:35 PM,46.4,33.8,62,29.63,10.0,South,10.4,-,N/A,,Clear,180,2014-03-13 20:35:00
3:55 PM,46.4,33.8,62,29.62,10.0,South,9.2,-,N/A,,Clear,170,2014-03-13 20:55:00
4:15 PM,48.2,33.8,58,29.61,10.0,South,9.2,-,N/A,,Clear,180,2014-03-13 21:15:00
4:36 PM,48.2,33.8,58,29.60,10.0,South,10.4,16.1,N/A,,Clear,190,2014-03-13 21:36:00
4:55 PM,48.2,33.8,58,29.59,10.0,South,9.2,16.1,N/A,,Clear,180,2014-03-13 21:55:00
5:15 PM,48.2,33.8,58,29.58,10.0,South,10.4,17.3,N/A,,Clear,190,2014-03-13 22:15:00
5:36 PM,48.2,33.8,58,29.58,10.0,South,10.4,16.1,N/A,,Clear,190,2014-03-13 22:36:00
5:55 PM,48.2,33.8,58,29.57,10.0,South,10.4,-,N/A,,Clear,190,2014-03-13 22:55:00
6:16 PM,48.2,33.8,58,29.56,10.0,South,10.4,-,N/A,,Clear,180,2014-03-13 23:16:00
6:35 PM,48.2,33.8,58,29.56,10.0,South,8.1,-,N/A,,Clear,190,2014-03-13 23:35:00
6:55 PM,48.2,35.6,62,29.55,10.0,South,8.1,-,N/A,,Clear,190,2014-03-13 23:55:00
7:16 PM,46.4,33.8,62,29.55,10.0,South,8.1,-,N/A,,Clear,190,2014-03-14 00:16:00
7:35 PM,46.4,33.8,62,29.55,10.0,South,6.9,-,N/A,,Clear,180,2014-03-14 00:35:00
7:55 PM,46.4,33.8,62,29.54,10.0,South,8.1,-,N/A,,Clear,180,2014-03-14 00:55:00
8:16 PM,46.4,33.8,62,29.54,10.0,South,6.9,-,N/A,,Clear,180,2014-03-14 01:16:00
8:35 PM,44.6,35.6,71,29.53,10.0,South,9.2,-,N/A,,Clear,180,2014-03-14 01:35:00
8:55 PM,44.6,35.6,71,29.52,10.0,South,8.1,-,N/A,,Clear,180,2014-03-14 01:55:00
9:16 PM,46.4,35.6,66,29.52,10.0,South,5.8,-,N/A,,Clear,190,2014-03-14 02:16:00
9:35 PM,44.6,35.6,71,29.51,10.0,South,6.9,-,N/A,,Clear,190,2014-03-14 02:35:00
9:55 PM,44.6,35.6,71,29.51,10.0,South,8.1,-,N/A,,Clear,170,2014-03-14 02:55:00
10:15 PM,44.6,35.6,71,29.51,10.0,South,5.8,-,N/A,,Clear,180,2014-03-14 03:15:00
10:36 PM,42.8,33.8,70,29.50,10.0,South,4.6,-,N/A,,Clear,180,2014-03-14 03:36:00
10:55 PM,42.8,33.8,70,29.49,10.0,South,5.8,-,N/A,,Clear,180,2014-03-14 03:55:00
11:15 PM,42.8,33.8,70,29.48,10.0,South,3.5,-,N/A,,Clear,190,2014-03-14 04:15:00
11:36 PM,42.8,33.8,70,29.48,10.0,South,3.5,-,N/A,,Clear,180,2014-03-14 04:36:00
11:55 PM,42.8,33.8,70,29.47,10.0,Calm,Calm,-,N/A,,Clear,0,2014-03-14 04:55:00